GFSNGP_925_temp_159.txt.gz
Temp
16 17 18 18 18 19 18 18 17 17 17 17 9 8 8 7 7 5 4 3 1 1 0 -2 -3 -3 -1 -1 -0 -1 -1 -1 -0 -0 -1 -1 -1 -1 -2 -3 -3 -4 -5 -5
15 17 17 17 18 18 18 18 18 18 18 19 14 12 9 6 4 4 5 5 4 2 2 2 2 1 1 1 0 0 0 0 0 0 0 -0 -0 -0 -0 -1 -2 -4 -4 -4
13 16 16 14 15 17 18 18 18 16 18 19 16 15 13 9 6 6 6 5 5 4 3 3 2 1 2 1 1 1 1 1 0 0 0 0 0 0 0 -0 -1 -2 -3 -3
13 14 12 16 18 18 15 17 15 16 17 18 15 15 14 12 9 9 7 6 6 4 3 2 2 1 1 1 1 1 0 0 -0 -0 -0 -0 0 -0 -0 -0 -1 -1 -2 -3
12 14 16 17 19 18 16 16 18 17 18 18 15 14 12 11 12 10 8 6 5 3 2 1 1 1 1 1 0 -0 -0 -0 -1 -1 -1 -0 -0 -0 -0 -0 -1 -1 -2 -3
13 13 13 17 18 17 17 15 17 18 18 16 14 12 12 12 10 9 7 5 4 2 1 0 0 -1 -3 -3 -3 -4 -2 -2 -1 -2 -1 -1 -1 -1 -1 -1 -1 -2 -2 -3
12 12 15 18 18 16 14 14 15 16 17 14 13 13 12 10 8 7 5 3 2 2 0 -3 -3 -4 -6 -6 -6 -7 -6 -4 -4 -3 -3 -2 -2 -2 -1 -1 -2 -2 -3 -3
12 12 12 18 16 15 14 14 14 14 14 13 10 9 9 8 6 5 4 3 3 2 0 -2 -3 -6 -6 -7 -7 -7 -7 -7 -7 -7 -5 -4 -4 -4 -3 -2 -3 -3 -4 -4
14 15 15 16 16 15 14 14 13 12 13 10 9 8 7 6 6 4 3 2 2 2 -0 -1 -2 -5 -6 -7 -7 -7 -7 -7 -7 -7 -7 -6 -6 -6 -4 -4 -4 -4 -4 -5
15 16 16 17 16 14 13 13 13 13 12 10 9 8 7 6 5 4 1 1 1 0 -1 -1 -2 -3 -3 -3 -5 -6 -6 -6 -7 -7 -7 -7 -6 -6 -6 -7 -6 -6 -6 -5
14 16 16 15 15 14 13 12 12 12 11 11 9 8 7 6 5 3 0 0 -1 -2 -3 -3 -2 -2 -2 -2 -2 -2 -3 -3 -3 -4 -6 -6 -8 -8 -7 -9 -10 -9 -9 -8
13 14 15 15 15 14 12 12 12 11 11 10 9 8 7 7 5 3 1 -0 -1 -2 -2 -2 -1 -1 -2 -2 -2 -2 -2 -3 -3 -3 -4 -5 -5 -7 -8 -9 -9 -10 -11 -12
15 14 14 12 14 13 12 12 12 11 11 9 9 8 7 7 5 3 2 1 0 -1 -1 -2 -2 -2 -2 -3 -3 -4 -3 -5 -4 -5 -5 -5 -5 -5 -5 -9 -8 -9 -10 -10
14 12 11 11 11 12 12 11 10 10 9 9 8 7 7 6 4 3 3 2 1 -1 -3 -4 -5 -6 -6 -6 -7 -6 -7 -7 -6 -6 -6 -6 -6 -6 -6 -6 -6 -6 -9 -10
12 12 11 12 11 11 10 10 9 9 8 8 7 7 6 5 3 3 3 2 1 -1 -3 -3 -4 -6 -7 -7 -7 -7 -6 -5 -6 -6 -6 -6 -7 -6 -6 -6 -6 -6 -6 -8
11 11 10 10 10 9 9 9 8 8 7 7 6 6 5 4 4 3 2 1 0 -0 -2 -3 -4 -6 -7 -7 -6 -6 -6 -7 -6 -5 -5 -6 -5 -5 -5 -5 -5 -5 -6 -7
10 9 10 9 9 9 9 9 9 7 7 6 6 5 5 4 3 2 1 -0 -1 -2 -3 -4 -5 -6 -6 -7 -7 -5 -4 -4 -7 -6 -5 -5 -5 -5 -5 -6 -6 -6 -6 -9
11 10 11 10 9 8 8 8 8 7 6 6 5 4 3 3 2 1 -0 -2 -4 -5 -5 -5 -6 -7 -7 -8 -7 -5 -4 -4 -4 -5 -5 -5 -5 -6 -6 -6 -6 -6 -7 -8
9 9 9 9 9 8 8 7 7 6 5 3 2 1 0 -0 -1 -2 -3 -4 -5 -6 -6 -6 -7 -7 -7 -7 -7 -6 -5 -4 -4 -4 -5 -5 -7 -6 -6 -6 -7 -7 -8 -8
7 6 7 7 7 7 6 5 3 1 1 0 -1 -2 -2 -2 -3 -3 -4 -5 -4 -4 -4 -5 -7 -8 -7 -7 -7 -6 -5 -5 -5 -5 -5 -6 -6 -6 -7 -7 -8 -8 -9 -9
2 1 1 1 0 2 2 2 1 -1 -2 -2 -2 -2 -2 -3 -4 -5 -5 -3 -4 -5 -5 -6 -7 -6 -6 -6 -7 -7 -6 -6 -6 -6 -6 -6 -6 -7 -7 -8 -8 -9 -9 -10
1 0 -0 -0 -0 -1 -0 -0 -0 -2 -3 -3 -3 -2 -3 -3 -5 -5 -4 -2 -1 -4 -6 -6 -6 -6 -5 -6 -6 -6 -6 -6 -6 -6 -6 -7 -7 -8 -8 -8 -9 -9 -10 -10
0 0 -0 -0 0 -1 -2 -2 -1 -1 -2 -3 -3 -3 -3 -1 -3 -3 -2 -3 -4 -5 -6 -5 -5 -7 -7 -7 -7 -7 -7 -7 -7 -7 -7 -8 -8 -8 -9 -9 -9 -10 -10 -10
0 0 -1 -1 -2 -0 -1 -2 -2 -2 -2 -3 -3 -3 -3 -2 -2 -2 -2 -3 -4 -5 -6 -6 -6 -7 -8 -8 -8 -7 -7 -7 -8 -8 -8 -9 -9 -9 -10 -10 -10 -10 -10 -11
-1 -1 -2 -1 1 2 0 -1 -2 -2 -3 -2 -2 -4 -4 -3 -2 -2 -3 -4 -6 -6 -7 -7 -7 -8 -9 -8 -7 -7 -8 -8 -8 -9 -9 -9 -9 -10 -9 -10 -10 -10 -10 -10
-0 2 1 -1 -0 2 2 -0 1 1 0 -0 -1 -3 -4 -5 -4 -5 -6 -6 -6 -7 -6 -6 -8 -9 -9 -8 -8 -8 -8 -9 -9 -9 -10 -9 -9 -10 -10 -10 -10 -10 -10 -10
-1 -1 0 0 -0 -0 -0 -0 0 0 -1 -2 -2 -3 -4 -5 -5 -6 -6 -6 -7 -7 -7 -7 -8 -9 -9 -8 -8 -8 -9 -9 -9 -9 -9 -10 -10 -10 -10 -10 -10 -11 -11 -12

GFSNGP_925_temp_162.txt.gz
Temp
15 16 17 17 17 18 17 18 16 17 18 18 13 9 8 8 8 6 5 3 1 1 -1 -2 -2 -2 -1 -0 -0 -0 -0 0 0 0 -0 -0 -0 -0 -1 -2 -3 -3 -4 -5
14 16 16 16 17 18 18 18 18 18 18 20 16 13 11 9 8 6 4 3 1 1 2 1 -0 -0 2 1 1 1 1 1 1 1 1 1 1 1 0 -0 -1 -2 -3 -4
13 15 15 13 15 17 18 18 18 17 18 18 15 14 12 10 8 5 4 3 2 4 4 3 3 3 2 2 2 2 2 1 1 1 1 1 1 1 0 -0 -1 -2 -3 -3
12 13 11 15 18 18 16 18 16 18 17 17 16 15 13 10 7 6 4 5 6 5 4 3 2 2 2 2 2 1 1 1 1 1 1 1 1 0 0 -0 -1 -1 -2 -3
10 12 14 15 18 18 14 14 13 18 18 19 17 14 12 10 9 6 8 7 6 5 3 3 2 2 2 2 1 1 1 1 -0 0 0 0 0 0 -0 -0 -1 -1 -2 -3
12 11 12 16 16 14 17 14 17 17 17 15 14 13 12 10 10 10 8 7 5 4 3 2 1 1 1 -0 -1 -2 -1 -1 -1 -1 -1 -1 -1 -0 -0 -1 -1 -2 -2 -3
11 11 14 17 18 17 13 14 16 15 16 15 14 12 10 11 10 9 7 6 4 3 1 -1 -1 -3 -4 -4 -5 -5 -4 -4 -4 -2 -2 -2 -2 -2 -1 -1 -2 -3 -3 -3
12 12 11 17 17 12 14 15 14 14 15 10 11 11 10 9 8 7 6 4 3 2 -0 -2 -3 -4 -5 -6 -6 -6 -6 -6 -6 -5 -4 -4 -4 -4 -3 -3 -3 -4 -4 -4
14 14 12 12 12 15 15 15 14 14 13 11 10 9 9 7 6 5 4 3 4 2 -0 -2 -3 -5 -5 -6 -6 -6 -6 -6 -6 -6 -6 -6 -5 -5 -5 -5 -5 -5 -5 -5
12 16 17 17 15 15 15 14 14 14 12 11 10 9 7 6 6 5 3 3 3 1 -0 -1 -2 -3 -4 -5 -6 -5 -5 -5 -5 -6 -6 -6 -6 -6 -7 -8 -7 -7 -8 -8
13 15 16 16 16 16 14 13 14 14 12 11 9 8 7 7 6 4 2 3 1 0 -1 -1 -2 -2 -2 -3 -3 -3 -3 -3 -3 -4 -5 -5 -6 -6 -7 -7 -7 -9 -9 -10
12 13 14 15 15 16 14 13 13 12 11 11 10 9 8 7 5 3 2 1 0 -1 -1 -1 -1 -1 -1 -1 -1 -1 -2 -2 -2 -2 -3 -4 -4 -5 -6 -7 -7 -8 -9 -9
14 12 13 14 14 15 14 13 13 12 12 10 10 9 8 7 5 3 2 1 0 -1 -1 -1 -0 -1 -1 -1 -1 -1 -1 -2 -3 -4 -4 -4 -5 -5 -5 -7 -7 -7 -8 -8
14 13 13 13 13 13 13 13 12 12 11 10 9 9 8 7 5 4 3 2 1 -1 -1 -2 -2 -2 -2 -3 -3 -3 -4 -5 -5 -5 -6 -6 -6 -6 -6 -6 -6 -6 -6 -7
14 14 13 13 12 12 13 12 11 11 10 9 9 8 7 6 5 4 3 2 2 -0 -2 -2 -3 -3 -3 -4 -5 -5 -6 -5 -5 -6 -5 -5 -6 -6 -5 -5 -5 -5 -5 -7
13 12 12 11 11 11 11 11 10 9 9 8 7 7 6 5 4 4 3 2 1 -0 -2 -2 -3 -4 -5 -5 -6 -6 -6 -5 -5 -5 -5 -5 -5 -5 -5 -5 -5 -5 -5 -6
11 10 11 10 10 10 10 10 10 9 8 7 7 6 6 5 4 4 3 2 1 0 -1 -2 -3 -4 -5 -6 -6 -5 -5 -5 -5 -6 -5 -5 -4 -4 -5 -5 -5 -5 -6 -7
12 11 11 11 10 9 9 9 9 8 6 6 6 5 5 4 3 3 2 0 -1 -1 -2 -2 -3 -4 -5 -5 -5 -5 -4 -4 -5 -5 -5 -4 -4 -5 -5 -6 -6 -6 -6 -7
9 10 9 10 10 9 9 8 8 7 6 5 4 2 3 3 2 1 -0 -1 -3 -4 -4 -4 -4 -5 -5 -6 -6 -6 -5 -4 -4 -4 -4 -4 -5 -6 -6 -6 -6 -7 -7 -8
7 5 4 4 5 7 4 5 4 3 3 3 2 0 -1 -1 -1 -1 -2 -3 -3 -4 -4 -4 -5 -6 -6 -6 -6 -6 -6 -5 -5 -5 -5 -5 -5 -6 -6 -7 -7 -7 -8 -8
1 0 -0 -0 -0 1 2 3 2 0 0 1 0 -1 -1 -2 -2 -2 -3 -4 -3 -4 -4 -4 -5 -6 -7 -7 -7 -7 -7 -6 -5 -5 -5 -5 -6 -6 -7 -7 -8 -8 -8 -9
1 -1 -1 0 -0 -1 -1 1 1 -0 -1 -1 -1 -1 -2 -3 -3 -4 -3 -2 -2 -2 -4 -5 -6 -6 -6 -6 -6 -6 -7 -7 -6 -6 -6 -6 -6 -7 -7 -8 -8 -9 -9 -9
0 0 -1 -0 0 -1 -1 -1 -1 -1 -1 -2 -2 -2 -2 -2 -3 -3 -3 -2 -2 -3 -4 -5 -5 -5 -5 -5 -5 -6 -6 -6 -6 -6 -7 -7 -7 -8 -8 -8 -9 -9 -9 -10
0 -0 -1 -1 -1 -1 -1 -2 -1 -1 -1 -2 -2 -2 -2 -2 -1 -2 -1 -1 -2 -3 -4 -5 -5 -5 -6 -6 -6 -7 -7 -7 -7 -7 -7 -8 -8 -8 -9 -9 -9 -9 -10 -10
-1 -1 -1 -0 1 1 0 -1 -1 -2 -2 -2 -2 -2 -2 -2 -1 -1 -2 -2 -3 -4 -4 -5 -5 -6 -7 -7 -8 -7 -7 -7 -7 -8 -8 -8 -9 -9 -9 -9 -9 -10 -10 -10
-1 -0 -0 -1 -0 2 1 -0 1 1 -0 -1 -1 -2 -3 -3 -3 -3 -3 -4 -5 -5 -6 -6 -6 -7 -8 -8 -8 -7 -7 -8 -8 -8 -8 -9 -9 -9 -9 -10 -9 -9 -10 -11
-0 -0 0 0 0 -0 -1 -1 -0 -1 -1 -2 -2 -2 -3 -4 -4 -4 -5 -5 -5 -6 -6 -6 -6 -7 -8 -8 -8 -8 -8 -8 -8 -9 -9 -9 -9 -10 -10 -9 -10 -11 -11 -13

GFSNGP_925_temp_165.txt.gz
Temp
13 14 14 14 14 15 14 14 13 13 14 13 11 9 6 6 5 3 2 1 0 -1 -2 -2 -2 -2 -2 -1 -1 -0 -0 0 0 0 -0 0 -0 -0 -1 -2 -3 -3 -4 -5
12 14 14 13 14 15 15 15 15 15 15 15 12 8 8 7 6 4 3 2 1 1 -1 -1 -2 -2 -1 0 1 0 1 1 1 1 1 1 0 -0 -1 -2 -3 -3 -4 -5
11 13 12 10 12 13 14 15 15 13 14 15 12 10 8 7 6 5 4 3 2 1 -0 0 0 0 0 1 1 1 1 1 1 1 1 0 0 -0 -1 -1 -2 -3 -4 -4
9 10 9 11 15 15 13 14 12 13 13 11 13 12 9 8 7 5 4 4 2 1 2 2 2 2 2 1 1 1 1 0 1 0 0 0 -0 -0 -1 -1 -2 -3 -4 -4
9 9 11 12 14 13 13 12 13 13 13 12 10 9 9 8 7 6 5 3 3 3 3 2 2 2 2 1 1 1 0 -0 -0 -0 -0 -0 -0 -0 -1 -1 -2 -3 -4 -4
8 9 9 12 15 15 14 9 13 13 13 11 10 7 7 8 7 5 4 5 3 3 3 2 2 2 1 0 -0 -1 -1 -1 -1 -1 -1 -1 -1 -1 -1 -2 -2 -3 -4 -5
9 9 9 14 15 14 11 10 12 13 12 10 10 8 7 7 6 6 5 4 3 2 1 0 1 1 -1 -1 -2 -2 -2 -2 -2 -2 -2 -2 -2 -2 -3 -3 -3 -4 -4 -5
8 8 9 12 14 12 9 9 12 12 9 8 7 7 7 7 6 5 4 3 1 -1 -2 -1 -1 -0 -2 -3 -3 -3 -3 -3 -3 -3 -4 -4 -3 -4 -4 -4 -4 -5 -5 -6
9 8 11 11 12 11 11 12 12 10 9 8 7 7 6 5 4 3 2 2 1 -1 -2 -3 -2 -2 -4 -5 -4 -4 -4 -5 -4 -5 -5 -5 -5 -5 -5 -5 -6 -6 -7 -8
11 11 11 10 11 10 13 13 12 10 9 8 7 6 5 3 3 2 1 1 -0 -1 -3 -4 -4 -4 -3 -4 -5 -5 -5 -6 -6 -5 -5 -6 -6 -6 -5 -6 -6 -7 -7 -8
8 9 11 12 10 11 12 12 12 9 9 8 7 6 4 3 3 2 2 1 -0 -2 -2 -3 -4 -4 -4 -4 -4 -4 -5 -5 -5 -4 -5 -5 -5 -5 -5 -6 -6 -7 -8 -8
7 10 10 11 11 12 11 11 11 9 8 7 7 5 5 4 2 2 1 -0 -1 -1 -2 -2 -3 -3 -4 -3 -3 -3 -4 -3 -3 -3 -4 -4 -5 -5 -6 -6 -6 -7 -7 -8
8 11 11 10 10 9 11 10 10 9 8 7 7 6 5 4 2 2 1 -0 -1 -1 -1 -2 -2 -2 -2 -2 -2 -2 -2 -3 -2 -3 -4 -4 -5 -5 -6 -6 -6 -6 -7 -7
10 9 9 11 9 12 12 11 11 10 8 8 7 6 5 4 2 2 1 -0 -1 -1 -2 -2 -1 -1 -1 -1 -1 -2 -2 -3 -3 -4 -4 -5 -5 -6 -6 -6 -6 -6 -6 -6
12 12 11 11 11 11 12 9 8 6 6 6 7 6 5 3 2 2 2 1 -0 -1 -2 -2 -2 -1 -1 -1 -2 -2 -3 -3 -4 -5 -5 -6 -6 -6 -6 -6 -5 -5 -5 -6
11 11 10 11 10 10 9 8 6 6 5 5 5 5 4 3 3 3 2 1 -1 -2 -2 -2 -2 -2 -2 -2 -3 -3 -4 -5 -5 -5 -6 -6 -5 -5 -5 -5 -5 -5 -5 -6
9 10 10 9 8 9 9 7 6 6 4 4 4 5 4 4 3 3 2 2 1 -1 -1 -2 -2 -3 -3 -3 -4 -4 -5 -5 -5 -5 -5 -5 -5 -5 -5 -5 -5 -5 -6 -6
9 9 8 8 8 7 7 7 6 5 4 5 5 5 3 3 1 2 2 1 0 -0 -1 -1 -2 -3 -3 -4 -5 -5 -5 -5 -5 -5 -5 -5 -5 -5 -5 -5 -6 -6 -6 -7
5 4 4 6 6 7 6 5 5 6 6 6 4 3 3 3 3 2 1 1 -0 -1 -2 -2 -2 -3 -3 -4 -5 -5 -5 -5 -5 -4 -4 -4 -5 -5 -5 -5 -6 -7 -7 -8
1 1 1 1 2 3 2 5 5 4 5 4 3 2 1 2 2 1 0 -0 0 0 -1 -2 -3 -3 -4 -4 -5 -6 -6 -5 -5 -5 -4 -4 -5 -5 -5 -6 -7 -7 -7 -8
-0 -1 -2 -2 -1 -1 0 2 3 1 1 3 2 0 0 -0 0 0 -2 -3 -2 -2 -2 -3 -4 -4 -5 -5 -6 -6 -6 -6 -6 -5 -5 -5 -5 -5 -6 -6 -7 -8 -8 -8
0 -1 -2 -1 -2 -2 -1 1 1 0 1 1 1 -0 -1 -2 -2 -2 -1 -2 -1 -2 -3 -4 -4 -4 -5 -5 -6 -6 -6 -6 -6 -6 -6 -6 -6 -6 -7 -7 -8 -8 -9 -9
0 -1 -1 -1 -1 -2 -2 -1 -0 0 -0 -0 -0 -1 -1 -1 -2 -3 -4 -2 -3 -2 -3 -3 -3 -4 -5 -6 -6 -6 -6 -6 -6 -6 -6 -6 -7 -7 -7 -8 -8 -9 -9 -9
-1 -1 -1 -1 -1 -1 -2 -2 -1 -1 -1 -1 -1 -1 -1 -2 -2 -2 -2 -2 -1 -2 -3 -3 -4 -5 -5 -6 -6 -6 -6 -6 -6 -6 -7 -7 -7 -8 -8 -8 -9 -9 -9 -10
-1 -1 -1 -0 -0 -0 -1 -1 -1 -2 -2 -2 -2 -2 -2 -2 -2 -1 -2 -2 -2 -3 -3 -4 -5 -5 -5 -5 -6 -6 -6 -6 -7 -7 -7 -7 -8 -8 -9 -9 -10 -10 -10 -10
-1 -1 -1 -1 -1 -0 -0 -1 -1 -1 -1 -1 -1 -2 -2 -2 -3 -3 -3 -3 -3 -4 -5 -5 -5 -6 -6 -6 -7 -7 -8 -7 -7 -7 -8 -8 -9 -9 -9 -9 -10 -10 -10 -11
-1 -1 -1 -1 -2 -2 -2 -2 -2 -2 -2 -2 -2 -2 -3 -3 -3 -4 -4 -5 -5 -5 -5 -6 -6 -6 -7 -7 -8 -8 -8 -7 -8 -8 -8 -9 -9 -10 -10 -10 -10 -11 -12 -13

GFSNGP_925_temp_171.txt.gz
Temp
12 13 13 13 13 13 12 12 11 12 11 12 9 9 8 6 6 3 2 0 -1 -2 -4 -3 -2 -2 -1 -1 -1 -1 -1 -1 -1 -1 -1 -2 -2 -3 -3 -4 -5 -4 -5 -5
12 13 12 11 12 12 12 12 12 12 12 12 12 10 9 8 4 3 2 1 1 -1 -2 -2 -2 -2 -1 -1 -1 -1 -1 -0 -0 -1 -1 -1 -2 -3 -3 -4 -5 -5 -5 -5
11 12 11 9 10 12 12 12 12 11 12 11 10 10 9 8 5 4 3 2 1 -0 -0 -1 -1 -2 -2 -1 -1 -0 -0 -0 -0 -0 -1 -1 -2 -3 -3 -4 -4 -5 -6 -6
9 10 9 11 11 11 10 11 10 11 10 11 10 10 8 7 6 4 3 2 1 1 1 -0 -1 -1 -1 -0 -0 -0 -0 -0 -0 -0 -1 -1 -2 -2 -3 -4 -4 -5 -6 -6
8 9 11 12 13 11 10 11 11 11 11 11 10 9 8 7 5 4 3 2 2 2 1 -1 -1 -1 -0 -0 -0 -0 -0 -0 -0 -0 -1 -1 -2 -2 -3 -4 -5 -5 -6 -6
7 8 9 10 12 13 12 9 11 11 11 11 9 9 8 6 4 3 3 3 3 1 -1 -0 -0 -0 -0 -0 -0 -0 -0 -0 -0 -1 -1 -1 -2 -2 -3 -3 -4 -5 -6 -6
9 8 9 11 12 13 10 9 11 11 10 10 8 8 7 4 4 3 3 2 1 0 -0 -0 0 0 -0 -0 -0 -0 -0 -1 -1 -1 -1 -1 -2 -2 -3 -4 -5 -6 -6 -7
8 8 8 11 11 10 8 9 9 9 9 9 7 7 4 3 2 1 1 1 1 -0 -1 0 1 1 -1 -1 -0 -1 -1 -1 -1 -2 -2 -2 -2 -3 -4 -4 -5 -6 -7 -8
8 8 9 10 11 10 9 9 10 10 10 8 7 5 4 2 1 1 1 -0 -1 -1 -2 -1 0 1 -1 -1 -1 -1 -2 -2 -2 -2 -3 -3 -3 -3 -4 -5 -5 -6 -7 -8
8 9 9 9 9 9 9 9 9 9 8 6 7 4 3 2 1 -0 -2 -2 -2 -2 -3 -3 -1 -1 1 -1 -2 -2 -2 -3 -3 -3 -4 -4 -4 -4 -4 -5 -5 -6 -7 -7
8 9 9 10 9 9 10 9 8 9 8 7 5 4 3 2 1 -1 -2 -2 -2 -2 -3 -3 -2 -2 -1 -1 -2 -3 -3 -3 -4 -4 -4 -5 -5 -5 -5 -5 -5 -5 -6 -7
6 8 8 9 9 9 8 8 8 8 7 6 5 4 3 2 1 -1 -2 -3 -3 -3 -3 -2 -2 -2 -2 -2 -3 -3 -5 -5 -5 -5 -6 -6 -6 -6 -6 -6 -6 -7 -7 -7
7 9 8 8 8 8 8 8 8 7 7 5 4 3 2 1 1 -0 -2 -2 -3 -2 -2 -2 -2 -3 -3 -3 -4 -4 -5 -5 -5 -5 -5 -6 -6 -6 -6 -6 -6 -7 -7 -7
7 8 7 7 7 9 8 7 8 8 7 5 4 3 2 1 0 -1 -2 -1 -1 -1 -1 -2 -2 -3 -3 -3 -4 -4 -4 -4 -4 -4 -5 -5 -5 -5 -5 -6 -6 -6 -7 -7
8 8 9 9 8 8 8 7 7 5 4 3 3 2 1 0 -0 -0 -0 -0 -0 -1 -2 -2 -3 -2 -3 -4 -4 -4 -4 -4 -4 -4 -4 -4 -4 -5 -5 -6 -6 -6 -6 -6
8 9 9 8 7 7 7 7 6 5 3 2 2 1 2 2 1 0 0 -0 -2 -3 -2 -2 -2 -1 -2 -3 -4 -4 -4 -3 -3 -3 -4 -4 -5 -5 -6 -6 -6 -6 -6 -6
8 7 7 7 6 7 8 7 5 4 3 2 3 2 2 1 0 -1 -1 -0 0 0 0 -0 -0 -1 -2 -2 -3 -3 -3 -3 -3 -3 -4 -4 -5 -5 -5 -6 -6 -6 -6 -5
5 3 3 3 3 4 5 6 6 4 3 4 4 2 1 -0 -0 -0 0 -0 -1 -1 -0 0 -0 -1 -2 -2 -2 -3 -3 -3 -4 -4 -4 -5 -5 -5 -6 -6 -6 -6 -5 -6
1 1 0 1 0 1 3 5 5 5 4 4 2 0 1 1 1 1 1 -1 -1 -2 1 0 -0 -1 -2 -2 -3 -3 -3 -4 -4 -4 -5 -5 -6 -6 -6 -6 -6 -6 -6 -6
-1 -1 -1 -2 -2 -2 -1 1 4 3 3 3 2 0 -0 1 1 1 0 -1 1 1 2 1 -0 -1 -2 -2 -3 -3 -4 -4 -5 -5 -5 -6 -6 -6 -6 -6 -6 -5 -6 -6
-1 -2 -3 -3 -3 -2 -2 -1 1 0 0 2 2 1 1 1 1 1 -2 -3 1 1 0 0 -0 -1 -2 -2 -3 -4 -4 -5 -5 -6 -6 -6 -6 -6 -6 -5 -5 -6 -6 -7
-2 -3 -3 -4 -3 -3 -3 -1 -0 -0 -0 0 1 1 0 -2 -2 -2 -1 -1 -0 0 -0 -0 -1 -1 -2 -3 -4 -4 -5 -5 -6 -6 -7 -7 -7 -6 -6 -6 -6 -6 -7 -7
-2 -2 -2 -3 -4 -4 -2 -2 -1 -1 -1 -1 -0 -1 -1 -1 -1 -3 -5 -1 -1 -1 -1 -2 -2 -3 -3 -4 -4 -5 -5 -6 -6 -7 -7 -7 -7 -7 -6 -6 -6 -7 -7 -8
-2 -2 -2 -2 -2 -2 -3 -3 -2 -2 -1 -1 -1 -1 -2 -2 -2 -2 -2 -2 -2 -2 -2 -3 -3 -3 -4 -4 -5 -5 -6 -6 -7 -7 -7 -7 -7 -7 -7 -7 -7 -8 -8 -9
-1 -2 -2 -1 -2 -3 -2 -2 -2 -2 -2 -2 -2 -2 -3 -3 -2 -2 -2 -2 -2 -2 -2 -3 -3 -4 -4 -5 -5 -6 -6 -6 -7 -7 -7 -7 -7 -7 -7 -7 -8 -9 -9 -10
-2 -3 -3 -3 -3 -3 -3 -3 -4 -4 -3 -3 -2 -3 -3 -3 -3 -4 -4 -3 -3 -3 -4 -4 -4 -5 -5 -5 -6 -6 -6 -7 -7 -7 -7 -7 -7 -8 -8 -8 -9 -10 -10 -11
-3 -3 -3 -3 -4 -4 -4 -4 -4 -4 -4 -4 -4 -4 -3 -4 -4 -4 -4 -4 -5 -5 -5 -5 -5 -6 -6 -6 -6 -7 -7 -7 -8 -8 -8 -8 -8 -8 -9 -9 -10 -10 -11 -12

GFSNGP_925_temp_174.txt.gz
Temp
12 13 12 12 13 12 11 11 11 12 11 12 9 9 8 8 8 6 3 1 -0 -1 -2 -3 -2 -2 -1 -1 -2 -1 -1 -1 -2 -2 -2 -3 -3 -4 -4 -4 -4 -5 -5 -5
11 12 12 12 11 11 12 12 12 11 11 12 12 9 9 9 7 5 3 2 0 -1 -2 -3 -3 -2 -2 -2 -2 -1 -1 -1 -2 -2 -2 -2 -3 -3 -4 -4 -5 -5 -5 -6
11 11 11 9 10 11 12 11 11 10 11 10 10 9 9 9 7 6 4 2 0 -1 -1 -2 -2 -2 -2 -2 -1 -1 -1 -1 -1 -1 -2 -2 -3 -3 -4 -5 -5 -5 -6 -7
10 10 9 10 11 11 10 10 10 11 11 10 10 9 8 7 7 5 3 2 1 -0 -1 -1 -1 -1 -1 -1 -1 -1 -1 -1 -1 -1 -1 -2 -2 -3 -4 -4 -4 -5 -6 -6
8 8 10 11 13 12 10 11 11 10 10 10 10 8 8 8 6 5 3 2 1 0 0 -0 -1 -1 -1 -2 -1 -1 -1 -1 -1 -1 -1 -1 -2 -3 -3 -4 -5 -5 -6 -6
7 8 9 11 12 12 11 10 11 11 11 10 9 8 8 7 5 3 2 1 1 1 0 -1 -1 -1 -2 -2 -1 -1 -1 -0 -0 -1 -1 -1 -2 -2 -3 -4 -5 -6 -6 -7
9 8 8 10 12 12 10 10 11 11 10 10 8 7 7 4 3 2 1 2 2 1 -0 -0 -1 -1 -2 -1 -1 -0 -0 -0 -1 -1 -1 -1 -2 -2 -3 -4 -5 -6 -6 -7
7 7 8 10 10 10 9 9 9 9 9 8 7 6 6 3 1 1 0 1 1 0 -0 -1 -1 -1 -2 -1 -0 -0 -0 -1 -1 -1 -1 -2 -2 -3 -3 -4 -5 -6 -7 -7
8 7 8 8 8 9 9 9 8 8 9 8 7 7 4 2 1 -0 0 -0 0 -1 -2 -2 -1 -1 -1 -0 -0 -1 -1 -1 -1 -2 -2 -2 -2 -3 -4 -5 -5 -6 -7 -7
6 6 6 9 10 9 9 8 8 8 8 7 7 6 3 1 0 -1 -1 -2 -1 -2 -3 -3 -1 -1 1 -0 -1 -1 -1 -2 -2 -2 -3 -3 -3 -4 -4 -4 -5 -6 -7 -7
7 8 9 9 10 9 9 8 7 7 7 7 5 4 2 1 0 -1 -2 -2 -2 -2 -3 -3 -2 -1 -0 -0 -1 -2 -2 -3 -3 -4 -4 -4 -4 -4 -4 -4 -5 -5 -5 -6
7 7 8 8 9 8 8 8 8 7 7 6 5 4 2 1 1 -1 -2 -2 -2 -2 -2 -2 -2 -1 -2 -1 -1 -2 -4 -4 -4 -4 -5 -5 -5 -5 -5 -5 -5 -6 -6 -7
8 8 7 7 7 8 7 7 7 7 6 6 5 3 2 0 0 -1 -2 -2 -2 -2 -1 -1 -2 -2 -2 -2 -2 -3 -4 -4 -4 -4 -5 -5 -6 -6 -6 -6 -7 -7 -7 -7
6 7 6 8 7 7 7 7 7 7 7 6 5 3 2 0 -0 -1 -2 -1 -1 -1 -1 -1 -2 -2 -2 -2 -3 -3 -3 -3 -4 -4 -4 -5 -5 -5 -5 -6 -6 -6 -6 -8
7 7 7 7 6 6 7 6 6 5 4 3 3 2 1 -1 -1 -1 -1 -1 -1 -1 -2 -2 -2 -2 -2 -3 -3 -4 -4 -5 -4 -4 -4 -4 -5 -5 -5 -6 -6 -6 -6 -7
6 6 7 7 6 6 6 6 6 4 4 2 1 1 1 1 0 -0 -1 -1 -2 -3 -2 -2 -2 -0 -2 -3 -4 -5 -5 -4 -5 -5 -5 -5 -5 -6 -6 -6 -6 -6 -6 -6
6 6 6 6 5 4 4 4 5 4 3 2 2 1 1 0 -0 -1 -1 -0 0 1 1 0 0 -1 -2 -3 -4 -4 -4 -5 -4 -5 -5 -5 -5 -5 -5 -5 -6 -6 -6 -6
3 3 2 2 2 1 2 3 4 4 4 4 2 2 1 0 0 -0 -1 -1 -1 -1 -0 1 0 -1 -1 -2 -3 -4 -4 -4 -4 -4 -4 -4 -5 -5 -5 -6 -6 -6 -6 -6
1 1 -0 -0 -1 -1 -1 1 3 4 4 3 2 1 2 2 1 0 -0 -1 -2 -2 1 0 -0 -1 -1 -2 -3 -3 -4 -4 -4 -4 -4 -4 -5 -5 -5 -6 -6 -6 -6 -6
-1 -2 -2 -2 -3 -3 -3 -2 -0 0 2 2 1 -0 -1 -0 1 0 -0 -1 1 1 1 1 0 -0 -1 -2 -3 -3 -4 -4 -4 -4 -4 -5 -5 -6 -6 -6 -6 -6 -6 -6
-2 -2 -3 -3 -4 -4 -3 -2 -1 -1 -1 0 0 -1 -1 -1 -1 -1 -2 -3 -0 0 0 1 0 -0 -1 -2 -3 -3 -4 -4 -5 -5 -5 -5 -6 -6 -6 -6 -6 -6 -6 -6
-2 -2 -3 -4 -4 -4 -3 -3 -2 -1 -1 -1 -0 -1 -1 -3 -2 -3 -2 -1 -0 1 0 -0 -0 -1 -2 -2 -3 -4 -4 -5 -5 -5 -6 -6 -7 -7 -7 -6 -6 -6 -6 -6
-2 -2 -3 -4 -4 -4 -3 -3 -3 -2 -2 -2 -2 -2 -2 -2 -2 -3 -4 -2 -1 -1 -1 -1 -1 -2 -2 -3 -3 -4 -4 -5 -5 -6 -6 -7 -7 -7 -7 -7 -6 -6 -6 -7
-2 -2 -3 -3 -3 -3 -4 -4 -3 -3 -3 -2 -2 -3 -2 -2 -3 -2 -2 -2 -2 -2 -2 -3 -3 -3 -4 -4 -4 -5 -5 -6 -6 -6 -7 -7 -7 -8 -8 -7 -7 -7 -7 -8
-3 -3 -3 -3 -3 -4 -4 -3 -3 -3 -3 -3 -3 -3 -3 -3 -3 -3 -3 -3 -3 -3 -3 -3 -4 -4 -4 -5 -5 -5 -6 -6 -7 -7 -7 -7 -7 -7 -8 -8 -8 -8 -8 -9
-3 -4 -4 -4 -4 -4 -4 -4 -5 -5 -4 -4 -4 -4 -4 -4 -4 -4 -4 -4 -4 -4 -4 -4 -4 -5 -5 -5 -6 -6 -6 -7 -7 -7 -7 -8 -8 -8 -8 -8 -8 -9 -9 -10
-3 -3 -4 -4 -4 -4 -4 -4 -4 -5 -4 -4 -5 -4 -4 -4 -4 -4 -5 -5 -5 -5 -5 -6 -6 -6 -6 -6 -7 -7 -7 -7 -8 -8 -8 -8 -8 -8 -8 -9 -9 -10 -10 -11